[[{"header":{"parameterUnit":"m.s-1","parameterCategory":1,"la1":30.2991,"la2":30.254,"lo1":-89.0895,"lo2":-89.0444,"dy":0.0017,"dx":0.0017,"nx":28,"ny":28,"refTime":"2024-04-19T09:00:00:Z","depth":0,"parameterNumber":2,"parameterNumberName":"U-component_of_WINDS"},"data":[0,0,0,0,0,0,0,0,0,0,0,0,0,0,0,0,0,0,0,0,0,0,0,0,0,0,0,0,0,0,0,0,0,0,0,0,0,0,0,0,0,0,0,0,0,0,0,0,0,0,0,0,0,0,0,0,0,0,-1.8672,-1.8675,0,-1.8928,-1.8931,-1.8934,-1.9049,-1.9049,-1.9049,-1.9048,-1.9311,-1.9318,-1.9325,0,0,0,0,0,0,0,0,0,0,0,0,0,-1.8282,-1.8289,-1.8672,-1.8675,-1.8678,-1.8928,-1.8931,-1.8935,-1.9049,-1.9049,-1.9049,-1.9048,-1.9308,-1.9317,-1.9326,0,0,0,0,0,0,0,0,0,0,0,0,0,-1.8486,-1.8291,-1.8671,-1.8766,-1.8777,-1.8927,-1.8931,-1.8936,-1.9049,-1.9049,-1.9049,-1.9048,-1.9306,-1.9316,-1.9327,-1.9403,0,0,-1.936,-1.9365,0,0,0,0,0,0,0,0,-1.8474,-1.85,-1.8748,-1.8759,-1.8772,-1.8956,-1.889,-1.9092,-1.905,-1.8946,-1.9048,-1.9048,-1.9193,-1.9213,-1.9262,-1.9415,-1.9426,-1.9361,-1.9368,-1.9372,-1.9375,0,0,0,0,0,0,0,-1.846,-1.849,-1.8773,-1.8752,-1.8766,-1.8795,-1.8824,-1.8929,-1.9069,-1.8955,-1.8964,-1.8993,-1.92,-1.9251,-1.9269,-1.943,-1.9361,-1.937,-1.9377,-1.9381,-1.9658,-1.9659,0,0,0,0,0,0,-1.8431,-1.8477,-1.8765,-1.8781,-1.8619,-1.8802,-1.8834,-1.8898,-1.9068,-1.9094,-1.8993,-1.8997,-1.9233,-1.9256,-1.9279,-1.9379,-1.9372,-1.9382,-1.9389,-1.9657,-1.9658,-1.9659,0,0,0,0,0,0,-1.8422,-1.8455,-1.8755,-1.8632,-1.8672,-1.881,-1.888,-1.8903,-1.8955,-1.9097,-1.9122,-1.902,-1.9234,-1.9264,-1.9371,-1.939,-1.9387,-1.9397,-1.9656,-1.9657,-1.9658,-1.958,0,0,0,0,0,0,-1.841,-1.8451,-1.8482,-1.8632,-1.8678,-1.8842,-1.8881,-1.8908,-1.8973,-1.8981,-1.9129,-1.9153,-1.9236,-1.9354,-1.9382,-1.9405,-1.9406,-1.9655,-1.9657,-1.9658,-1.9581,-1.9578,-1.9575,0,0,0,0,0,-1.8396,-1.8449,-1.8483,-1.8517,-1.8719,-1.8843,-1.887,-1.8964,-1.8974,-1.9006,-1.9097,-1.9148,-1.9383,-1.9364,-1.9396,-1.9423,-1.9654,-1.9656,-1.9658,-1.9583,-1.9579,-1.9576,0,0,0,0,0,0,-1.8299,-1.8471,-1.851,-1.8613,-1.8713,-1.8862,-1.8905,-1.8957,-1.9056,-1.9059,-1.9171,-1.9204,-1.9301,-1.9373,-1.9349,-1.9505,-1.9523,-1.9531,-1.9455,-1.9453,-1.945,-1.9431,-1.9415,0,0,0,0,0,-1.8289,-1.8375,-1.8521,-1.8599,-1.8647,-1.8767,-1.8825,-1.8888,-1.8996,-1.9039,-1.9138,-1.924,-1.9337,-1.9399,-1.9496,-1.9592,-1.9626,-1.9626,-1.9623,-1.962,-1.9626,-1.9682,-1.9684,-1.9665,-1.9665,-1.9665,0,0,-1.8271,-1.8375,-1.8423,-1.8582,-1.8667,-1.8754,-1.8802,-1.8892,-1.8958,-1.9053,-1.916,-1.9236,-1.9358,-1.946,-1.951,-1.9523,-1.9639,-1.9622,-1.9619,-1.9627,-1.9684,-1.9686,-1.9687,-1.9666,-1.9666,-1.9666,0,0,-1.8282,-1.8369,-1.8444,-1.8527,-1.8654,-1.8734,-1.8751,-1.8893,-1.8947,-1.9057,-1.913,-1.9209,-1.9374,-1.9458,-1.9522,-1.9563,-1.9615,-1.9592,-1.9577,-1.963,-1.9632,-1.9634,-1.9649,-1.9653,-1.9597,-1.9597,-1.9597,0,-1.8243,-1.8377,-1.8475,-1.8562,-1.8629,-1.8718,-1.8794,-1.887,-1.9022,-1.9067,-1.9079,-1.9287,-1.9376,-1.9499,-1.9508,-1.9557,-1.9581,-1.9576,-1.9624,-1.9627,-1.963,-1.9646,-1.9651,-1.9593,-1.9594,-1.9594,-1.9595,0,-1.8323,-1.8415,-1.8459,-1.8604,-1.8676,-1.8756,-1.8867,-1.8928,-1.8985,-1.9063,-1.9173,-1.9282,-1.9403,-1.9436,-1.9493,-1.9568,-1.9572,-1.9602,-1.9623,-1.9626,-1.9643,-1.965,-1.9588,-1.959,-1.9591,-1.9592,0,0,-1.8282,-1.8478,-1.8493,-1.8559,-1.8705,-1.8778,-1.8862,-1.898,-1.9031,-1.9132,-1.9206,-1.9343,-1.9372,-1.9444,-1.9511,-1.9558,-1.9584,-1.9583,-1.9588,-1.958,-1.9673,-1.9649,-1.9655,-1.9618,-1.962,-1.9621,-1.9663,0,-1.8313,-1.8468,-1.8558,-1.8676,-1.8762,-1.8847,-1.892,-1.9018,-1.9092,-1.9176,-1.9259,-1.9355,-1.9385,-1.943,-1.948,-1.957,-1.9604,-1.9568,-1.9688,-1.9691,-1.9656,-1.9664,-1.964,-1.9674,-1.967,-1.9671,-1.9672,0,-1.8371,-1.847,-1.8596,-1.8732,-1.8772,-1.8836,-1.8951,-1.903,-1.9142,-1.9193,-1.9273,-1.934,-1.9432,-1.9444,-1.9573,-1.9546,-1.9601,-1.9652,-1.9656,-1.9671,-1.9682,-1.968,-1.9687,-1.9692,-1.9683,-1.9682,-1.9682,0,-1.8329,-1.8494,-1.8591,-1.8645,-1.8805,-1.8848,-1.8918,-1.9029,-1.9094,-1.9194,-1.9238,-1.9347,-1.9407,-1.949,-1.9585,-1.9585,-1.9704,-1.9724,-1.975,-1.9747,-1.9772,-1.9769,-1.9788,-1.9805,-1.9805,-1.9805,-1.9805,0,-1.8355,-1.8429,-1.8573,-1.8633,-1.8718,-1.882,-1.8902,-1.8978,-1.9076,-1.9152,-1.9232,-1.9302,-1.9422,-1.9506,-1.9581,-1.9676,-1.9703,-1.9747,-1.9766,-1.974,-1.9734,-1.9778,-1.9778,-1.9806,-1.9806,-1.9806,-1.9805,0,-1.8323,-1.8422,-1.8533,-1.8676,-1.8713,-1.877,-1.8892,-1.8953,-1.9032,-1.9127,-1.9155,-1.9278,-1.9382,-1.9484,-1.9623,-1.9673,-1.9767,-1.9792,-1.9729,-1.974,-1.976,-1.9757,-1.9808,-1.9821,-1.9827,-1.9827,-1.9827,0,-1.8333,-1.8392,-1.854,-1.8596,-1.8664,-1.8753,-1.8819,-1.8922,-1.8988,-1.912,-1.9165,-1.9274,-1.9367,-1.9528,-1.963,-1.9737,-1.9766,-1.9777,-1.9783,-1.9755,-1.9767,-1.9763,-1.9769,-1.9774,-1.9773,-1.9773,-1.9772,0,-1.8342,-1.8388,-1.848,-1.8589,-1.8665,-1.8756,-1.885,-1.8892,-1.9013,-1.9082,-1.9189,-1.9261,-1.9402,-1.951,-1.9629,-1.97,-1.9757,-1.9769,-1.9781,-1.9756,-1.9717,-1.9739,-1.9722,-1.9768,-1.9768,-1.9769,-1.9769,-1.9769,-1.8332,-1.8388,-1.8501,-1.86,-1.8681,-1.8767,-1.8831,-1.8917,-1.9008,-1.9131,-1.9186,-1.9293,-1.9403,-1.9569,-1.9639,-1.9725,-1.9739,-1.9756,-1.976,-1.9763,-1.9757,-1.9702,-1.9747,-1.9747,-1.9747,-1.9747,-1.9748,0,-1.8345,-1.8421,-1.8512,-1.864,-1.8718,-1.8763,-1.8869,-1.8932,-1.9025,-1.9123,-1.9213,-1.9335,-1.9439,-1.9549,-1.966,-1.9707,-1.9736,-1.9733,-1.9731,-1.9747,-1.9738,-1.9717,-1.9708,-1.9708,-1.9708,-1.9708,-1.9708,-1.9708,-1.8361,-1.8458,-1.8517,-1.8655,-1.8731,-1.8836,-1.8893,-1.8972,-1.9051,-1.9183,-1.927,-1.9341,-1.9444,-1.9563,-1.9661,-1.9691,-1.9728,-1.9718,-1.9755,-1.9745,-1.9747,-1.975,-1.9731,-1.9725,-1.9725,-1.9757,-1.9757,-1.9757]},{"header":{"parameterUnit":"m.s-1","parameterCategory":1,"la1":30.2991,"la2":30.254,"lo1":-89.0895,"lo2":-89.0444,"dy":0.0017,"dx":0.0017,"nx":28,"ny":28,"refTime":"2024-04-19T09:00:00:Z","depth":0,"parameterNumber":3,"parameterNumberName":"V-component_of_WINDS"},"data":[0,0,0,0,0,0,0,0,0,0,0,0,0,0,0,0,0,0,0,0,0,0,0,0,0,0,0,0,0,0,0,0,0,0,0,0,0,0,0,0,0,0,0,0,0,0,0,0,0,0,0,0,0,0,0,0,0,0,2.8594,2.8593,0,2.8497,2.8496,2.8495,2.8393,2.8392,2.8391,2.8389,2.8286,2.8284,2.8283,0,0,0,0,0,0,0,0,0,0,0,0,0,2.8691,2.869,2.8594,2.8593,2.8592,2.8497,2.8496,2.8494,2.8394,2.8392,2.839,2.8389,2.8286,2.8285,2.8283,0,0,0,0,0,0,0,0,0,0,0,0,0,2.8627,2.869,2.8594,2.853,2.8523,2.8497,2.8496,2.8494,2.8394,2.8392,2.839,2.8388,2.8287,2.8285,2.8283,2.831,0,0,2.8276,2.8275,0,0,0,0,0,0,0,0,2.8631,2.8624,2.8541,2.8535,2.8527,2.8455,2.8492,2.8432,2.8395,2.8443,2.8389,2.8387,2.8344,2.8337,2.8323,2.8306,2.8301,2.8276,2.8274,2.8273,2.8273,0,0,0,0,0,0,0,2.8635,2.8627,2.8555,2.854,2.8531,2.8506,2.8494,2.848,2.8406,2.8439,2.8431,2.8421,2.8339,2.8325,2.832,2.83,2.8276,2.8274,2.8272,2.8271,2.8303,2.8305,0,0,0,0,0,0,2.865,2.8632,2.8559,2.8553,2.8575,2.8506,2.8493,2.848,2.8406,2.8393,2.8423,2.8417,2.833,2.8322,2.8316,2.8344,2.8273,2.8271,2.827,2.8301,2.8303,2.8306,0,0,0,0,0,0,2.8652,2.8644,2.8562,2.859,2.8578,2.8506,2.8493,2.8479,2.8465,2.8394,2.838,2.8422,2.8328,2.8319,2.8313,2.8339,2.827,2.8268,2.8298,2.8302,2.8305,2.8402,0,0,0,0,0,0,2.8656,2.8646,2.8656,2.8591,2.8577,2.8563,2.8494,2.8479,2.8462,2.8453,2.839,2.8377,2.8326,2.8317,2.8311,2.8335,2.8267,2.8296,2.83,2.8304,2.8396,2.8408,2.8419,0,0,0,0,0,2.8659,2.8686,2.8657,2.8649,2.8588,2.8564,2.8556,2.8497,2.8465,2.8474,2.8429,2.8379,2.8338,2.8317,2.831,2.8334,2.8294,2.8299,2.8303,2.8391,2.8406,2.8419,0,0,0,0,0,0,2.8753,2.8676,2.8643,2.8649,2.8615,2.8547,2.8557,2.8514,2.8487,2.8479,2.8406,2.8393,2.8396,2.8364,2.8343,2.8358,2.8309,2.8313,2.8379,2.8392,2.8403,2.841,2.8265,0,0,0,0,0,2.8775,2.8764,2.8696,2.8708,2.8693,2.8629,2.8616,2.8574,2.8534,2.8519,2.8473,2.8435,2.8414,2.8401,2.8378,2.8392,2.8377,2.8405,2.8416,2.8426,2.8429,2.8436,2.8448,2.8322,2.8322,2.8322,0,0,2.8819,2.8776,2.8772,2.8726,2.8694,2.8683,2.8616,2.8607,2.8598,2.8516,2.8509,2.8475,2.8429,2.8434,2.8434,2.8407,2.8461,2.8432,2.844,2.8438,2.8442,2.8454,2.8465,2.8325,2.8324,2.8324,0,0,2.8894,2.886,2.8867,2.8838,2.8791,2.8749,2.8751,2.8691,2.8666,2.8658,2.8597,2.8585,2.855,2.852,2.85,2.8568,2.8522,2.8562,2.862,2.8628,2.8638,2.8646,2.8671,2.8681,2.8566,2.8567,2.8567,0,2.8954,2.8936,2.8876,2.8871,2.8853,2.8782,2.8789,2.8763,2.871,2.8699,2.8671,2.8627,2.859,2.8589,2.8606,2.8592,2.8592,2.8568,2.8642,2.8649,2.8656,2.8679,2.8689,2.8572,2.8571,2.8571,2.857,0,2.9013,2.9002,2.9013,2.8967,2.8951,2.8952,2.8892,2.8882,2.8843,2.8804,2.8798,2.8753,2.8719,2.8716,2.8676,2.8709,2.8695,2.8655,2.8604,2.8675,2.8695,2.8703,2.858,2.8578,2.8576,2.8575,0,0,2.9141,2.9065,2.907,2.9049,2.8994,2.8984,2.8983,2.8953,2.8946,2.8913,2.8911,2.8885,2.8849,2.8826,2.8783,2.879,2.8849,2.875,2.8747,2.877,2.8883,2.8913,2.8924,2.8818,2.882,2.8821,2.8887,0,2.9206,2.9201,2.9148,2.9157,2.9147,2.9081,2.908,2.9047,2.9011,2.8997,2.8956,2.894,2.8893,2.888,2.8884,2.8841,2.887,2.8835,2.8815,2.8815,2.8828,2.8934,2.8965,2.903,2.8895,2.8896,2.8897,0,2.928,2.9255,2.9264,2.9212,2.9206,2.9206,2.9175,2.9163,2.9124,2.9098,2.9075,2.9028,2.9023,2.8977,2.897,2.8947,2.8936,2.8914,2.8915,2.891,2.8859,2.8932,2.9049,2.9059,2.8909,2.8908,2.8907,0,2.9374,2.9342,2.9343,2.9328,2.9267,2.9269,2.9243,2.9203,2.9189,2.9162,2.9152,2.9125,2.911,2.909,2.9037,2.9008,2.9036,2.8985,2.9014,2.9015,2.9021,2.9021,2.9138,2.9016,2.9015,2.9015,2.9015,0,2.9451,2.9459,2.9385,2.9386,2.9394,2.9334,2.9343,2.9311,2.9277,2.927,2.9211,2.9207,2.9137,2.9124,2.9083,2.9084,2.9077,2.9056,2.9044,2.9061,2.9064,2.9051,2.9045,2.9018,2.9017,2.9017,2.9016,0,2.9555,2.9506,2.9504,2.9448,2.9434,2.9443,2.9394,2.9393,2.9355,2.9348,2.9343,2.9284,2.9266,2.9212,2.918,2.9152,2.9166,2.9144,2.9179,2.9172,2.9204,2.9202,2.9316,2.9329,2.92,2.9201,2.9202,0,2.9608,2.9613,2.9559,2.9552,2.953,2.9518,2.9504,2.9447,2.9435,2.9393,2.9397,2.9376,2.9355,2.9331,2.9284,2.926,2.9238,2.928,2.9233,2.9251,2.9239,2.9239,2.924,2.9289,2.9291,2.9292,2.9293,0,2.9707,2.9683,2.9666,2.9643,2.9629,2.9607,2.9581,2.9578,2.9513,2.9503,2.9486,2.9471,2.944,2.942,2.9389,2.9362,2.9317,2.9309,2.9314,2.933,2.9351,2.9341,2.9206,2.9306,2.9305,2.9304,2.9303,2.9302,2.9786,2.9789,2.9752,2.9736,2.9712,2.969,2.9687,2.9651,2.9636,2.9608,2.9575,2.9562,2.9525,2.9479,2.9456,2.9445,2.9421,2.9429,2.943,2.9433,2.9442,2.9354,2.9439,2.9439,2.9438,2.9438,2.9438,0,2.9882,2.9856,2.9843,2.981,2.9799,2.976,2.9731,2.9723,2.9713,2.9683,2.9666,2.9647,2.9628,2.9582,2.9558,2.9558,2.9538,2.9554,2.9553,2.9548,2.9464,2.9462,2.9572,2.9572,2.9572,2.9572,2.9572,2.9572,2.9931,2.9934,2.9906,2.9897,2.9871,2.9859,2.9846,2.9826,2.9802,2.9785,2.9769,2.974,2.9704,2.9678,2.9659,2.9646,2.964,2.9664,2.9644,2.9566,2.9553,2.9541,2.9539,2.9663,2.9663,2.9728,2.9729,2.9729]}]]